Flag for Albania Weather past 2 weeks in Tirana, Albania

45 °F

Scattered clouds.

Feels Like: 43 °F
Forecast: 38 / 62 °F
Wind: 3 mph from South

Location: Tirana Airport

Current Time: Dec 1, 2015 at 9:03:04 AM

Latest Report: Dec 1, 2015 at 7:50 AM

Visibility: N/A

Pressure: 30.30 "Hg

Humidity: 81%

Dew point: 39 °F

Location of TiranaLocation

Historic Weather in Tirana — Graph


Tirana temperature yesterday

Maximum temperature yesterday: 59 °F (at 12:20 PM)
Minimum temperature yesterday: 32 °F (at 5:50 AM)
Average temperature yesterday: 45 °F

Past Weeks' High & Low Weather Summary

High73 °F (Nov 17, 1:50 PM)100% (Nov 18, 11:50 PM)30.33 "Hg (Nov 18, 11:50 PM)
Low32 °F (Nov 30, 5:50 AM)34% (Nov 30, 12:20 PM)29.45 "Hg (Nov 21, 11:20 PM)
Average54 °F79%29.93 "Hg
* Reported Nov 16 7:50 AM — Dec 1 7:20 AM, Tirana, Weather by CustomWeather, © 2015

Note: Actual official high and low records may vary slightly from our data, if they occured in-between our weather recording intervals... More about our weather records


Tirana weather history for previous 24 hours

Time TempWeatherWind HumidityBarometerVisibility
7:20 AM
Tue, Dec 1
45 °FScattered clouds.6 mph81%30.30 "HgN/A
6:50 AM45 °FBroken clouds.6 mph81%30.30 "HgN/A
6:20 AM43 °FPartly cloudy.5 mph81%30.30 "HgN/A
5:50 AM45 °FPartly cloudy.6 mph81%30.30 "HgN/A
5:20 AM45 °FPassing clouds.5 mph81%30.30 "HgN/A
4:50 AM43 °FPassing clouds.No wind87%30.30 "HgN/A
4:20 AM41 °FPassing clouds.5 mph87%30.30 "HgN/A
3:50 AM41 °FPassing clouds.6 mph87%30.30 "HgN/A
3:20 AM43 °FPassing clouds.6 mph81%30.30 "HgN/A
2:50 AM43 °FPassing clouds.6 mph87%30.30 "HgN/A
1:20 AM41 °FPassing clouds.6 mph87%30.30 "HgN/A
12:50 AM41 °FPassing clouds.3 mph87%30.30 "HgN/A
12:20 AM41 °FPassing clouds.5 mph87%30.33 "HgN/A
11:20 PM
Mon, Nov 30
41 °FPassing clouds.2 mph93%30.33 "HgN/A
10:50 PM41 °FPassing clouds.3 mph87%30.30 "HgN/A
10:20 PM43 °FPassing clouds.3 mph87%30.33 "HgN/A
9:50 PM43 °FClear.5 mph87%30.33 "Hg10 mi
9:20 PM43 °FPassing clouds.3 mph87%30.33 "HgN/A
8:50 PM41 °FClear.5 mph93%30.33 "Hg10 mi
8:20 PM43 °FClear.2 mph87%30.33 "Hg10 mi
7:50 PM45 °FClear.6 mph87%30.33 "Hg10 mi
7:20 PM45 °FClear.3 mph87%30.33 "Hg10 mi
6:50 PM43 °FClear.5 mph87%30.33 "Hg10 mi
6:20 PM45 °FClear.3 mph87%30.33 "Hg10 mi
5:50 PM45 °FClear.3 mph87%30.33 "Hg10 mi
5:20 PM48 °FClear.2 mph76%30.33 "Hg10 mi
4:50 PM50 °FPassing clouds.2 mph67%30.33 "HgN/A
4:20 PM54 °FPassing clouds.No wind54%30.30 "HgN/A
3:50 PM55 °FPassing clouds.2 mph55%30.30 "HgN/A
3:20 PM55 °FScattered clouds.3 mph47%30.30 "HgN/A
2:50 PM57 °FScattered clouds.2 mph44%30.30 "HgN/A
2:20 PM57 °FSunny.5 mph48%30.30 "Hg10 mi
1:50 PM59 °FSunny.2 mph42%30.27 "Hg10 mi
1:20 PM59 °FSunny.2 mph39%30.30 "Hg10 mi
12:50 PM59 °FSunny.2 mph39%30.30 "Hg10 mi
12:20 PM59 °FSunny.No wind34%30.30 "Hg10 mi
11:50 AM57 °FSunny.No wind39%30.33 "Hg10 mi
11:20 AM54 °FSunny.2 mph54%30.33 "Hg10 mi
10:50 AM52 °FPartly sunny.2 mph54%30.33 "HgN/A
10:20 AM50 °FPartly sunny.2 mph62%30.33 "HgN/A
9:50 AM46 °FSunny.2 mph71%30.33 "Hg10 mi
9:20 AM45 °FSunny.2 mph71%30.33 "Hg10 mi
Weather by CustomWeather, © 2015

See weather overviewHow to use our weather pages